Tracking 22879 objects as of 20-Apr-2021
HD Live streaming from Space Station
objects crossing your sky now

STARLINK 1059

Track STARLINK 1059 now!
10-day predictions
STARLINK 1059 is classified as:


NORAD ID: 44764
Int'l Code: 2019-074BD
Perigee: 553.2 km
Apogee: 555.5 km
Inclination: 53.1 °
Period: 95.6 minutes
Semi major axis: 6925 km
RCS: Unknown
Launch date: November 11, 2019
Source: United States (US)
Launch site: AIR FORCE EASTERN TEST RANGE (AFETR)
aabbcc
Your satellite tracking list
Your tracking list is empty




NASA's NSSDC Master Catalog

Two Line Element Set (TLE):
1 44764U 19074BD  21109.92706056 -.00000888  00000-0 -40679-4 0  9990
2 44764  53.0561 298.7329 0001710 106.9253 253.1923 15.06403494 79469
Source of the keplerian elements: AFSPC